Regional Weather Roundup
Issued by NWS Charleston, SC

Home | Current Version | Previous Version | Text Only | Print | Product List | Glossary On
Versions: 1 2 3 4 5 6 7 8 9 10 11 12 13 14 15 16 17 18 19 20 21 22 23 24 25 26 27 28 29 30 31 32 33 34 35 36 37 38 39 40 41 42 43 44 45 46 47 48 49 50
000
ASUS42 KCHS 232327
RWRCHS

REGIONAL WEATHER ROUNDUP
NATIONAL WEATHER SERVICE CHARLESTON SC
600 PM EST THU NOV 23 2017

NOTE: "FAIR" INDICATES FEW OR NO CLOUDS BELOW 12,000 FEET WITH NO
SIGNIFICANT WEATHER AND/OR OBSTRUCTIONS TO VISIBILITY.

NOT ALL STATIONS ARE QUALITY CONTROLLED. USE DATA WITH CAUTION...
ESPECIALLY DEWPOINT OBSERVATIONS.

SCZ027-030-031-034>040-042>050-240000-
...SOUTHEAST SOUTH CAROLINA...

CITY           SKY/WX    TMP DP  RH WIND       PRES   REMARKS
N CHARLESTON   LGT RAIN  46  44  93 NE9       29.99F
WATERFRONT PRK NOT AVBL
JOHNS ISLAND   LGT RAIN  46  46 100 N9        30.00S
PINOPOLIS        N/A     46  43  87 NE15      29.95R
MONCKS CORNER  LGT RAIN  45  41  87 NE8       30.01F
SUMMERVILLE    RAIN      45  43  93 N6        30.02S
BEAUFORT MCAS  CLOUDY    48  48 100 N10       29.99F
BEAUFORT ARPT  MOCLDY    46  45  93 NE14G20   29.97F
HILTON HEAD IS DRIZZLE   50  48  93 N12       29.98F
WALTERBORO     CLOUDY    45  43  93 N5        30.02S
ALLENDALE      MOCLDY    48  41  76 CALM      30.01R

...SOUTHERN MIDLANDS AND PEE DEE...

CITY           SKY/WX    TMP DP  RH WIND       PRES   REMARKS
GEORGETOWN     DRIZZLE   45  45 100 N8        30.04S
KINGSTREE      FAIR      45  36  70 N3        30.04S
ORANGEBURG     CLOUDY    47  38  71 NE6       30.03S
BARNWELL         N/A     50  41  71 CALM      30.02S
AIKEN          FAIR      46  37  71 CALM      30.05R
MANNING        FAIR      45  37  76 MISG      30.04S
COLUMBIA       MOCLDY    51  39  63 E3        30.03R
SUMTER         CLOUDY    45  36  69 NE3       30.01F
FLORENCE       CLOUDY    46  37  71 E5        30.05R
MYRTLE BEACH   CLOUDY    47  39  74 N9        30.06R
N MYRTLE BEACH CLOUDY    47  39  74 NE7       30.03S

$$

GAZ063-065-086>088-099>101-113>116-118-119-134>141-150-240000-
...SOUTHEAST GEORGIA...

CITY           SKY/WX    TMP DP  RH WIND       PRES   REMARKS
SAVANNAH ARPT  CLOUDY    49  48  97 N7        29.99S FOG
HUNTER AAF     CLOUDY    50  47  92 N3        29.95S
FORT STEWART   CLOUDY    50  48  93 N8        29.97R
STATESBORO     CLOUDY    51  42  70 N6        30.00S
SYLVANIA       CLOUDY    51  46  82 NE5       30.01S
CLAXTON        CLOUDY    53  48  83 N6        30.00S

...CSRA...CENTRAL AND FAR SOUTHEAST GEORGIA...

CITY           SKY/WX    TMP DP  RH WIND       PRES   REMARKS
THOMSON        CLEAR     48  42  79 CALM      30.06S
AUGUSTA-BUSH   PTCLDY    51  42  71 E3        30.00S
AUGUSTA-DANIEL CLEAR     54  41  61 NE6       30.01S
SWAINSBORO     FAIR      52  45  76 CALM      30.00F
VIDALIA        CLOUDY    54  48  82 NE6       29.99S
EASTMAN        CLOUDY    57  38  49 NE5       30.01S
HAZLEHURST     MOCLDY    56  45  64 N6        29.97S
ALMA           CLOUDY    54  51  90 VRB3      29.96R
WAYCROSS       LGT RAIN  54  51  90 NE9       29.96S
JESUP          CLOUDY    54  52  94 CALM      29.98R FOG
BAXLEY         CLOUDY    52  52 100 NE9       29.96F
BRUNSWICK      DRIZZLE   55  54  94 N7G17     29.96R
SAINT SIMONS   CLOUDY    59  59 100 N12       29.94R

$$

SCZ027-028-034-036>038-045-046-048>050-GAZ119-141-240000-
...LAKE AND SUPPLEMENTAL COASTAL OBSERVATIONS...

STATION/POSITION TIME  TEMP    WIND        PRES    WAVE   SWELL
                       AIR SEA DIR/SP/G            HT/PER HT/PER/DIR
                 (UTC) (F)     (DEG/KT/KT) (MB)    (FT/S) (FT/S/D)
WINYAH BAY       2245   47      40/  4     1017.0R
LAKE MURRAY      2250   53      40/  2/  4 1016.3R
ACE BASIN NERRS  2245   47     350/  3     1015.0S
FORT PULASKI     2300   50 60   20/  9/ 12 1015.3
SAPELO ISLAND    2300   55      10/ 13     1014.0

$$

ANZ835-935-AMZ111-154-330-350-352-354-370-450-454-472-240000-
...C-MAN AND BUOY OBSERVATIONS...

STATION/POSITION TIME  TEMP    WIND        PRES    WAVE   SWELL
                       AIR SEA DIR/SP/G            HT/PER HT/PER/DIR
                 (UTC) (F)     (DEG/KT/KT) (MB)    (FT/S) (FT/S/D)
BUOY 41004       2310   64 75   30/ 21/ 27 1014.1
BUOY 41008       2250   63 67   40/ 21/ 25 1012.8R   6/ 5
FOLLY BEACH CMAN 2300   49      30/ 16/ 19 1016.0R
CAPERS NEARSHORE 2308   46 61   30/ 19/ 25 1015.2F
FRIPP NEARSHORE  2308   50 61   40/  8/ 19 1014.0S


STATION/POSITION TIME  TEMP    WIND        PRES    WAVE   SWELL
                       AIR SEA DIR/SP/G            HT/PER HT/PER/DIR
                 (UTC) (F)     (DEG/KT/KT) (MB)    (FT/S) (FT/S/D)
5E ST. MARYS GA  2300      67                N/A     6/ 6
FRYING PAN BUOY  2310   59 71   30/ 19/ 23 1015.9
BUOY 41025       2310   56 71   20/ 12/ 16 1017.6
CAPE LOOKOUT NC  2300           10/ 12/ 15 1017.9R
BUOY 41002       2250   71 77   70/ 19/ 23 1012.2F   8/ 8
BUOY 41010       NOT AVBL
ST AUGUSTINE FL  2300   68 69   20/ 21/ 23 1010.7R


$$



USA.gov is the U.S. government's official web portal to all federal, state and local government web resources and services.